Starlink 32518

operational
NORAD ID: 61967 Int'l Des: 2024-210 Owner: SPXS Country: US Constellation: starlink
LEOCIRCULAR

Über Starlink 32518

Beschreibung wird geladen...

Live-Position

3D-Globus wird geladen...

Nächste Überflüge

Höhenverlauf

Altitude vs Time

uPlot chart will show altitude changes over time

Zweizeiliger Elementsatz

1 61967U 24210J 25352.19356490 .00021443 00000-0 78613-3 0 9994
2 61967 42.9983 273.1823 0002663 245.0964 114.9611 15.27592675 62391
Epoch: 18. Dez. 2025 • Age: 20 hours

Aktueller Status

Höhe 486.9 km
Geschwindigkeit 7.62 km/s
Subsatellitenpunkt -19.56°S, 144.49°E
Startdatum 14. Nov. 2024
Alter 1 years
Typ internet

Technische Details

Klassifizierung Payload
Masse 730.00 kg
Trockenmasse 700.00 kg
Gesamtmasse 730.00 kg
Länge 0.30 m
Durchmesser 4.10 m
Spannweite 29.00 m
Form Box + pan
Hersteller SPXS
Bus-Typ Starlink V2M
Phasenstatus In Orbit
Besitzer/Staat SPXS/US

Große Konstellationen

Loading constellations...